Wind_Speed
3 3 3 2 1 1 1 3 6 8 8 8 8 8 7 7 8 8 8 8 8 8 8 9 9 10 10 10 10 10 9 10 10 10 9 10 10 11 11 11 11 11 11 11 11 11 11 11 12
5 5 4 2 1 1 2 6 8 9 8 9 8 9 8 8 8 9 10 9 9 10 10 10 11 11 11 11 11 11 11 11 11 11 11 11 11 12 12 12 12 12 12 12 12 12 12 12 12
6 6 5 2 3 5 6 8 10 10 8 9 9 9 9 10 9 10 12 12 11 12 12 12 12 12 11 11 11 12 11 11 12 12 12 12 12 13 13 13 13 12 13 13 13 14 13 13 13
7 7 4 3 5 6 9 10 11 10 9 10 10 9 10 11 11 12 13 13 14 14 14 14 13 12 13 13 12 12 12 12 12 13 13 13 14 14 14 13 13 14 14 14 14 15 15 15 15
8 5 4 4 6 8 10 12 11 10 10 11 11 11 11 12 13 13 14 15 15 15 15 15 14 14 13 14 13 13 13 13 13 14 14 15 15 15 14 14 14 14 14 15 15 15 16 16 16
8 5 5 5 7 9 12 13 12 12 12 11 13 12 13 14 14 15 15 15 15 15 15 15 16 15 15 15 14 14 15 15 15 15 16 16 16 15 15 15 15 15 15 16 16 16 16 17 17
8 6 6 6 9 11 12 13 11 11 12 12 13 12 13 14 15 16 16 15 15 15 16 16 16 15 15 15 15 15 16 16 16 16 17 17 16 16 16 16 16 16 16 16 16 16 17 17 17
7 6 7 8 11 12 13 13 11 12 13 12 13 13 13 13 14 14 15 15 16 15 15 15 16 15 15 15 16 16 16 17 17 17 17 17 17 17 17 17 17 17 17 17 17 17 17 17 17
6 5 6 8 11 12 12 12 13 14 14 12 13 13 13 12 12 14 15 15 16 15 15 15 15 15 15 16 16 16 16 18 18 18 18 19 19 18 17 17 17 17 18 18 18 18 18 18 17
7 6 8 9 10 13 13 12 13 14 13 13 13 13 14 12 12 13 15 16 16 16 17 15 14 15 16 16 16 16 17 18 18 19 19 19 20 19 18 18 18 18 18 18 18 18 18 18 17
8 8 10 11 12 12 13 13 13 13 13 14 14 14 14 13 13 15 16 16 17 17 16 15 15 16 17 17 17 18 18 18 19 19 19 20 20 20 20 19 19 19 19 18 18 18 18 18 18
10 9 11 12 12 12 12 12 13 12 13 14 14 13 14 14 15 16 17 17 17 17 17 17 17 17 17 18 18 19 19 19 19 19 20 20 20 19 19 19 19 19 18 18 19 18 18 18 18
10 11 12 11 10 11 11 11 12 11 12 14 14 14 14 15 16 17 17 17 17 17 18 18 18 18 18 18 19 19 19 19 20 20 20 19 19 19 19 19 19 19 19 19 19 19 19 19 19
8 10 10 10 10 10 11 12 12 12 13 14 15 16 16 17 17 17 18 19 18 18 19 19 18 18 18 19 20 19 19 19 19 20 20 20 20 19 19 19 19 19 19 20 20 20 20 20 19
7 8 9 9 11 12 12 13 13 13 14 15 16 17 18 18 18 18 19 19 19 19 19 19 20 20 19 19 20 21 19 18 19 20 21 21 20 20 19 19 19 19 19 19 19 19 19 19 19
6 8 9 11 13 14 14 13 14 16 16 16 17 18 19 19 18 18 19 19 20 20 20 20 22 21 21 21 20 21 21 20 20 21 21 21 21 21 20 20 19 19 19 19 19 18 18 19 20
6 9 10 12 14 15 14 15 16 16 16 17 18 18 19 19 19 19 20 20 20 21 21 21 22 22 22 21 21 22 22 21 21 21 21 22 21 20 19 18 18 18 18 18 19 18 19 19 20
9 10 11 14 16 16 16 17 19 16 16 18 19 18 19 20 20 21 21 21 21 21 21 21 22 22 23 22 22 22 22 22 22 21 21 21 21 20 19 19 18 18 17 17 18 18 19 19 19
11 11 12 14 16 16 17 18 18 18 18 18 19 19 20 21 21 22 22 22 22 21 22 22 23 23 23 23 22 23 23 22 21 21 22 21 20 19 19 19 18 17 17 18 17 17 18 18 19
11 12 13 15 18 18 18 18 18 18 16 18 19 20 21 22 22 22 22 22 22 22 22 22 22 22 22 21 22 22 21 21 21 21 21 21 19 18 18 18 17 16 16 16 17 16 17 18 19
11 11 13 16 18 18 18 18 18 18 17 17 19 19 21 23 22 22 22 22 22 22 21 21 20 20 20 20 21 20 20 20 19 20 20 19 19 18 17 17 16 16 16 15 15 16 17 18 18
11 11 14 15 15 15 16 16 18 19 19 20 20 19 21 23 23 23 23 22 21 21 21 20 18 18 18 19 19 19 19 18 18 18 18 17 18 17 15 15 15 15 15 14 15 16 17 18 18
11 11 13 13 14 13 15 16 18 21 20 19 20 21 21 22 22 22 23 22 21 20 20 20 18 18 18 18 18 18 18 17 16 17 16 16 16 16 16 15 16 15 15 14 15 16 17 18 18
10 10 11 11 13 14 14 17 20 20 21 20 21 22 21 22 22 22 22 22 21 20 20 18 18 17 17 18 17 16 16 15 15 16 16 16 15 15 15 15 15 15 15 15 16 17 17 17 18
10 10 10 11 13 14 15 16 19 19 20 20 20 21 21 21 22 22 21 22 22 21 20 18 18 18 18 17 16 15 15 16 15 15 16 15 14 13 14 14 15 15 15 15 17 17 17 18 19
11 10 11 12 12 13 14 17 20 21 22 20 20 20 20 20 20 20 22 23 22 21 20 19 18 18 18 17 16 16 16 16 16 15 15 14 13 13 13 14 15 15 15 16 17 18 18 18 18
11 10 12 13 12 14 15 17 18 20 21 19 19 19 19 21 20 21 22 23 22 22 21 19 18 17 17 17 17 16 15 15 14 14 14 14 14 14 13 14 15 15 15 16 17 17 18 18 19
10 11 11 12 12 13 14 17 20 19 19 21 21 20 19 20 21 21 21 22 23 22 20 19 17 17 17 17 15 14 14 14 14 14 14 14 14 14 14 14 15 15 16 16 17 17 17 17 18
10 11 12 12 12 13 15 19 19 21 21 22 21 20 20 20 21 23 22 22 22 21 19 17 16 16 16 15 14 14 14 14 14 14 14 14 14 14 14 14 14 15 15 15 15 16 16 17 18
12 12 13 15 14 15 16 19 19 20 21 22 22 21 21 21 21 22 21 21 20 19 17 16 15 15 15 15 14 14 14 14 14 15 15 15 15 15 15 15 14 14 14 15 15 15 16 17 18
Wind_Direction
196 183 177 178 134 93 355 300 281 279 279 276 269 275 271 271 277 284 291 294 300 301 296 291 289 287 289 290 288 285 285 285 286 285 284 280 278 278 278 274 271 271 269 266 263 261 259 259 257
195 194 195 184 108 214 263 276 271 281 288 287 286 282 279 276 280 289 294 292 296 300 299 292 290 291 291 291 290 289 285 287 287 285 285 282 280 280 279 276 274 273 271 268 265 263 260 259 256
196 201 206 204 232 230 252 268 263 276 285 288 292 286 288 286 287 289 291 295 294 296 296 294 292 293 292 288 288 290 289 290 288 285 287 284 281 283 282 279 276 274 272 269 266 264 262 260 259
199 199 201 232 243 252 252 261 260 269 277 284 290 287 290 287 287 287 291 294 295 294 296 294 291 290 290 290 290 292 291 290 291 288 285 285 281 282 282 280 279 276 273 270 267 265 264 263 261
204 206 218 233 233 253 262 261 268 273 278 278 281 281 289 292 291 288 289 293 295 293 292 292 291 294 294 292 293 294 293 294 292 291 288 284 282 283 285 282 280 278 275 271 267 265 263 263 262
208 203 235 243 248 260 270 276 276 278 281 277 283 287 286 291 292 290 289 293 294 293 292 292 291 295 296 294 290 292 293 293 293 292 291 287 285 285 284 283 281 278 276 273 268 264 262 262 262
207 197 238 248 258 266 276 282 285 283 280 279 283 287 287 290 292 290 290 289 288 291 293 292 292 293 296 297 293 292 292 291 290 291 292 290 286 285 284 281 278 277 274 272 269 266 265 265 263
207 196 215 236 249 257 269 280 286 284 281 288 291 293 292 294 293 290 293 295 295 296 295 293 292 292 296 297 296 294 294 292 291 293 292 291 286 284 282 279 276 274 272 270 268 265 263 264 266
209 222 225 236 246 258 274 281 286 285 289 290 293 291 293 296 293 294 298 298 298 296 297 296 297 298 298 300 301 298 297 297 296 296 294 293 290 287 281 277 275 273 271 270 267 265 264 265 267
213 228 243 240 253 264 273 276 281 283 286 288 288 291 293 295 302 303 305 303 303 295 294 300 302 302 302 302 303 300 299 299 297 295 293 292 289 286 282 279 276 273 271 269 267 266 266 265 265
225 235 242 248 254 262 268 276 279 283 284 284 285 288 293 295 299 303 305 305 303 301 300 298 300 301 301 302 302 301 298 296 294 293 291 290 288 284 282 280 277 275 271 268 268 268 269 267 266
234 240 251 256 255 259 266 276 275 275 280 286 290 290 291 296 300 300 300 300 300 301 302 299 299 300 300 301 301 300 297 294 293 292 292 291 289 285 282 283 280 276 273 270 269 267 268 268 267
234 240 250 260 268 273 274 279 282 280 275 281 289 294 294 296 299 300 299 298 298 299 299 302 301 300 300 301 299 298 297 297 293 292 291 290 290 289 286 282 280 277 275 272 272 268 267 269 269
233 242 254 254 263 271 279 283 287 284 286 288 293 296 297 297 297 296 298 297 297 299 300 300 300 300 299 300 298 298 298 298 295 293 292 292 292 292 289 285 281 279 277 274 273 270 269 268 269
231 249 262 269 277 280 284 285 287 292 291 293 295 295 295 296 296 297 298 298 298 299 300 298 298 299 299 302 300 299 298 297 296 296 294 293 293 292 289 288 283 279 276 275 273 271 271 270 271
237 257 269 275 275 284 288 286 287 291 291 296 299 299 299 299 301 302 302 302 302 301 298 298 298 298 298 298 299 298 296 294 293 294 294 294 293 291 288 287 283 278 275 274 272 271 272 271 273
264 272 270 270 272 280 284 282 286 289 293 298 299 299 302 302 304 305 305 304 303 303 299 298 297 297 297 296 298 299 295 293 292 294 295 296 293 290 287 286 283 279 275 274 273 270 271 272 273
256 266 262 266 271 274 281 282 290 291 292 294 298 300 302 302 303 303 303 303 302 301 300 298 297 296 298 298 297 299 297 293 293 292 295 295 294 289 285 283 282 280 276 275 274 271 272 273 274
255 251 253 262 271 276 277 280 289 293 294 296 299 301 302 303 302 303 302 303 302 301 300 297 296 296 297 296 297 297 298 296 293 291 292 293 293 289 284 283 282 281 277 275 274 274 275 275 275
256 257 265 268 267 271 275 278 281 288 293 298 299 302 304 305 304 304 304 303 303 303 301 297 295 296 297 297 298 297 298 300 296 294 293 293 293 290 285 283 285 283 279 276 274 275 276 277 276
260 262 268 268 267 273 277 279 281 285 291 293 296 301 304 305 304 305 306 306 306 307 304 300 300 299 297 298 298 300 301 301 298 296 296 293 290 289 288 287 288 287 283 279 275 276 279 280 279
264 269 269 268 273 278 279 283 283 284 293 299 299 300 303 305 305 307 309 308 308 309 306 302 301 300 298 300 301 302 303 301 299 296 297 295 292 291 294 293 292 290 287 281 277 278 280 281 281
266 269 277 278 281 282 284 283 281 284 294 302 303 303 302 304 306 308 309 311 311 311 308 302 298 301 302 303 304 304 302 300 298 299 298 297 295 292 291 293 291 288 286 283 281 282 283 283 281
271 275 279 287 288 283 282 279 281 287 296 299 300 301 302 301 303 306 308 310 311 311 308 305 302 301 302 303 304 305 303 302 298 301 300 299 299 295 291 292 293 288 286 285 282 282 284 284 285
264 268 276 281 280 278 277 282 285 293 298 301 302 301 300 301 303 306 311 312 311 311 308 303 303 303 303 301 301 301 300 301 297 298 301 299 300 302 301 296 294 290 287 284 281 282 284 284 285
267 269 271 279 280 287 285 280 289 295 299 302 301 303 303 304 305 308 311 314 312 310 307 304 302 303 303 302 299 298 298 297 295 296 298 300 298 301 303 301 297 293 290 286 282 283 285 284 284
271 270 267 272 280 284 280 280 285 294 296 301 304 304 307 308 309 310 310 311 311 309 307 306 303 302 303 303 300 295 295 297 297 297 297 301 300 301 302 302 300 298 294 292 290 288 286 285 285
281 281 281 276 283 285 291 289 289 295 304 308 308 309 309 309 309 311 311 310 311 310 307 305 304 303 303 303 301 297 296 294 296 297 298 300 301 302 302 304 302 299 297 296 294 291 288 287 286
288 281 273 269 269 272 280 283 288 296 300 304 306 307 310 311 311 313 312 311 312 310 308 307 306 305 304 303 301 300 299 295 295 295 296 298 300 303 303 304 305 303 300 300 298 292 288 288 289
280 278 274 274 272 272 277 280 285 293 297 300 304 306 308 311 313 314 315 315 314 312 312 309 307 307 307 305 302 299 298 294 292 292 294 296 298 299 301 303 306 306 306 305 300 294 292 291 291
Height
5879 5880 5880 5881 5882 5883 5884 5884 5884 5883 5882 5881 5880 5879 5878 5879 5879 5880 5878 5876 5876 5875 5875 5875 5874 5874 5874 5873 5873 5872 5872 5872 5871 5871 5870 5870 5870 5869 5869 5869 5868 5868 5868 5868 5868 5868 5868 5868 5868
5879 5880 5880 5881 5882 5883 5884 5884 5884 5882 5881 5879 5879 5878 5877 5877 5878 5877 5876 5875 5875 5874 5874 5873 5873 5872 5872 5871 5871 5870 5870 5869 5869 5869 5868 5868 5867 5867 5867 5866 5866 5866 5865 5865 5865 5865 5865 5865 5866
5877 5878 5880 5880 5881 5883 5883 5883 5882 5881 5879 5878 5878 5877 5877 5876 5876 5875 5874 5874 5873 5873 5873 5872 5871 5870 5869 5869 5869 5868 5868 5867 5867 5866 5866 5865 5865 5864 5864 5864 5863 5863 5863 5862 5862 5863 5863 5863 5863
5876 5878 5878 5880 5882 5882 5882 5881 5880 5879 5879 5878 5877 5876 5875 5875 5875 5874 5873 5872 5872 5871 5870 5870 5869 5868 5867 5867 5866 5866 5865 5864 5864 5864 5863 5863 5862 5862 5861 5860 5860 5860 5859 5859 5859 5860 5860 5860 5860
5874 5875 5877 5878 5880 5882 5881 5880 5878 5877 5877 5876 5876 5875 5873 5873 5873 5872 5871 5870 5870 5869 5868 5867 5867 5866 5865 5864 5864 5863 5863 5862 5861 5861 5860 5860 5859 5858 5858 5857 5857 5856 5856 5856 5856 5856 5856 5857 5857
5873 5874 5877 5878 5880 5881 5880 5878 5878 5877 5876 5875 5874 5873 5872 5872 5871 5870 5869 5868 5868 5867 5866 5865 5865 5864 5863 5862 5861 5860 5860 5859 5858 5858 5857 5857 5856 5855 5854 5854 5853 5853 5853 5853 5852 5853 5853 5853 5853
5872 5873 5876 5878 5879 5879 5878 5877 5876 5875 5873 5872 5872 5870 5869 5869 5869 5868 5867 5866 5865 5864 5863 5863 5862 5861 5860 5859 5859 5858 5857 5856 5855 5854 5854 5853 5852 5852 5851 5850 5849 5849 5849 5849 5848 5849 5849 5849 5850
5870 5872 5874 5876 5878 5877 5876 5875 5874 5873 5872 5870 5869 5868 5867 5867 5867 5866 5865 5864 5863 5862 5860 5858 5859 5857 5857 5856 5855 5855 5854 5853 5852 5851 5850 5849 5848 5847 5847 5846 5846 5845 5845 5845 5844 5845 5845 5845 5846
5869 5872 5873 5874 5875 5874 5873 5872 5872 5870 5870 5869 5868 5867 5866 5865 5864 5863 5863 5862 5861 5859 5858 5856 5855 5855 5854 5853 5852 5851 5850 5849 5848 5847 5846 5845 5844 5843 5842 5842 5841 5841 5841 5840 5840 5841 5841 5841 5842
5869 5870 5872 5873 5873 5872 5871 5870 5869 5869 5867 5867 5866 5865 5864 5863 5862 5861 5860 5859 5858 5856 5855 5853 5852 5852 5851 5850 5849 5847 5846 5845 5844 5843 5842 5841 5840 5839 5838 5838 5837 5836 5836 5836 5836 5836 5837 5837 5838
5868 5870 5871 5871 5870 5869 5869 5868 5867 5866 5865 5864 5863 5863 5862 5861 5860 5859 5858 5856 5855 5853 5852 5851 5850 5849 5848 5847 5845 5844 5843 5841 5840 5839 5837 5836 5835 5834 5834 5833 5832 5832 5832 5832 5832 5832 5833 5833 5834
5867 5868 5868 5868 5868 5867 5867 5865 5864 5863 5863 5862 5860 5860 5859 5858 5857 5856 5855 5854 5853 5851 5850 5849 5847 5846 5845 5844 5842 5841 5839 5838 5836 5834 5833 5832 5831 5830 5829 5828 5828 5828 5827 5828 5828 5828 5828 5829 5829
5866 5867 5867 5866 5866 5865 5864 5863 5862 5860 5860 5859 5858 5857 5856 5855 5855 5854 5852 5851 5850 5848 5847 5846 5845 5843 5842 5840 5839 5837 5835 5833 5832 5830 5829 5827 5826 5825 5824 5824 5823 5823 5823 5823 5824 5824 5824 5825 5825
5864 5865 5865 5864 5864 5863 5862 5861 5861 5859 5858 5857 5856 5855 5854 5853 5852 5851 5850 5848 5847 5846 5844 5843 5841 5840 5838 5836 5835 5833 5831 5829 5828 5826 5825 5823 5822 5821 5820 5819 5818 5818 5818 5819 5819 5819 5820 5820 5820
5862 5863 5863 5862 5862 5861 5861 5860 5858 5857 5856 5855 5854 5853 5852 5851 5849 5848 5847 5845 5844 5842 5841 5840 5838 5836 5834 5832 5831 5829 5827 5825 5823 5822 5821 5819 5817 5816 5815 5814 5813 5813 5813 5813 5814 5814 5815 5815 5815
5860 5861 5861 5861 5860 5860 5860 5858 5856 5854 5853 5852 5851 5850 5849 5847 5845 5844 5843 5842 5840 5839 5837 5836 5834 5832 5831 5829 5827 5825 5823 5821 5819 5818 5816 5815 5813 5811 5810 5809 5808 5808 5808 5808 5809 5810 5810 5810 5810
5858 5859 5860 5860 5858 5858 5857 5855 5854 5852 5850 5850 5848 5847 5846 5845 5842 5841 5839 5838 5836 5835 5833 5831 5830 5828 5826 5824 5822 5820 5818 5816 5814 5813 5812 5810 5808 5806 5805 5804 5803 5803 5803 5803 5804 5805 5805 5806 5805
5857 5858 5858 5858 5856 5855 5854 5852 5851 5849 5849 5847 5846 5844 5843 5841 5840 5838 5836 5834 5832 5830 5828 5826 5825 5823 5821 5820 5818 5815 5813 5811 5809 5808 5807 5805 5803 5801 5800 5799 5799 5798 5798 5798 5799 5800 5800 5800 5800
5855 5856 5856 5855 5854 5853 5853 5851 5848 5848 5846 5845 5843 5842 5840 5838 5836 5834 5831 5829 5827 5825 5823 5822 5820 5819 5817 5815 5813 5810 5809 5807 5805 5803 5801 5800 5798 5797 5795 5795 5794 5793 5793 5794 5794 5795 5795 5795 5795
5853 5854 5854 5853 5852 5852 5850 5848 5847 5844 5842 5842 5840 5839 5836 5834 5832 5829 5827 5825 5823 5821 5819 5817 5815 5813 5811 5810 5808 5805 5803 5802 5800 5798 5796 5795 5793 5792 5791 5791 5790 5789 5789 5789 5790 5790 5790 5790 5790
5851 5851 5850 5850 5848 5848 5847 5845 5843 5841 5839 5838 5837 5835 5833 5831 5828 5825 5822 5820 5818 5816 5814 5812 5810 5809 5807 5805 5803 5801 5799 5797 5795 5794 5792 5790 5789 5788 5787 5786 5786 5785 5785 5785 5785 5786 5786 5786 5785
5848 5848 5848 5847 5846 5845 5845 5842 5839 5836 5835 5834 5833 5832 5830 5827 5824 5821 5818 5816 5814 5812 5809 5808 5806 5804 5802 5800 5798 5796 5794 5793 5791 5790 5788 5787 5786 5784 5784 5783 5782 5781 5781 5781 5781 5781 5781 5781 5781
5846 5846 5845 5844 5843 5842 5841 5839 5837 5834 5832 5831 5830 5828 5826 5823 5820 5818 5815 5813 5810 5808 5805 5803 5801 5800 5798 5796 5795 5793 5791 5789 5788 5786 5785 5784 5782 5781 5780 5779 5778 5778 5777 5777 5777 5777 5777 5776 5776
5844 5844 5843 5841 5840 5839 5839 5837 5834 5831 5830 5829 5826 5825 5823 5819 5816 5814 5812 5810 5806 5804 5802 5799 5797 5795 5794 5792 5791 5789 5787 5786 5785 5783 5782 5781 5780 5778 5777 5776 5775 5774 5774 5774 5773 5773 5772 5772 5771
5841 5841 5841 5839 5838 5837 5835 5833 5831 5828 5827 5826 5824 5822 5819 5816 5813 5811 5808 5806 5803 5800 5798 5796 5794 5792 5791 5789 5787 5786 5784 5783 5782 5780 5779 5778 5776 5775 5774 5773 5772 5771 5770 5770 5769 5769 5768 5767 5766
5838 5838 5838 5837 5836 5834 5831 5830 5829 5826 5825 5823 5821 5819 5816 5813 5809 5807 5805 5802 5799 5796 5795 5792 5791 5789 5787 5785 5784 5782 5781 5779 5778 5777 5776 5775 5773 5772 5771 5770 5768 5767 5766 5765 5765 5764 5763 5762 5761
5835 5834 5834 5833 5832 5832 5829 5826 5825 5822 5821 5819 5817 5815 5813 5810 5806 5804 5801 5799 5796 5793 5791 5789 5787 5785 5783 5781 5780 5778 5777 5776 5774 5774 5773 5771 5770 5769 5768 5766 5765 5763 5762 5761 5760 5759 5758 5757 5756
5833 5832 5831 5830 5829 5828 5827 5823 5821 5819 5817 5815 5813 5811 5809 5806 5803 5800 5798 5795 5792 5789 5787 5785 5783 5781 5780 5778 5777 5775 5774 5773 5772 5771 5770 5769 5767 5766 5764 5763 5761 5760 5758 5757 5756 5754 5753 5752 5751
5830 5829 5828 5827 5826 5825 5824 5823 5818 5816 5815 5813 5810 5808 5806 5803 5800 5797 5794 5791 5789 5785 5783 5781 5779 5777 5776 5775 5773 5772 5771 5770 5768 5768 5767 5766 5764 5763 5761 5760 5758 5756 5755 5753 5751 5750 5749 5747 5746
5826 5825 5824 5823 5822 5821 5821 5820 5815 5813 5812 5810 5807 5805 5802 5799 5797 5793 5790 5787 5785 5782 5780 5778 5776 5775 5773 5771 5770 5769 5767 5766 5765 5765 5764 5763 5761 5760 5758 5756 5754 5753 5751 5749 5747 5745 5744 5743 5742